Meteo Giornale » Osservazioni meteo Italia » Falconara

ore: 06:50 - Osservazioni Meteo Falconara
Lat. 43° 37' N Lon. 13° 22' E Alt. 12 metri s.l.m.

sereno

20 °C

Sereno

Temp. 24 Ore

19 °C

31 °C

Nord

3.7 Km/h

Dew point 16 °C

Umidità 77 %

Visibilità  10 Km

Il sole sorge alle ore 06:31

Il sole tramonta alle ore 19:41

Data e Ora Cielo e Fenomeni T °C DP °C Um. % Pres. hPa Vis. km Vento km/h
Oggi h: 06:50 sereno Sereno 20 16 77 1017 10 N 3.7
Oggi h: 06:20 sereno Sereno 19 16 82 1017 10 N 5.5
Oggi h: 05:50 sereno Sereno 19 16 82 1017 10 N 5.5
Oggi h: 05:20 sereno Sereno 21 16 73 1017 10 N 5.5
Oggi h: 04:50 sereno Sereno 21 16 73 1017 10 N 5.5
Oggi h: 04:20 sereno Sereno 21 17 77 1017 10 N 3.7
Oggi h: 03:50 sereno Sereno 21 18 82 1017 10 S/SE 7.4
Oggi h: 03:20 sereno Sereno 20 18 88 1017 10 N 3.7
Oggi h: 02:50 sereno Sereno 21 19 88 1017 10 N 3.7
Oggi h: 02:20 sereno Sereno 21 19 88 1017 10 N 5.5
Oggi h: 01:50 sereno Sereno 23 19 78 1017 10 N 5.5
Oggi h: 01:20 sereno Sereno 23 19 78 1017 10 N 5.5
Oggi h: 00:50 sereno Sereno 23 19 78 1017 10 S/SO 7.4
Oggi h: 00:20 sereno Sereno 24 19 73 1017 10 S 7.4
Ieri h: 23:50 sereno Sereno 24 19 73 1017 10 N 5.5
Ieri h: 23:20 sereno Sereno 23 19 78 1017 10 N 5.5
Ieri h: 22:50 sereno Sereno 25 19 69 1017 10 S/SE 7.4
Ieri h: 22:20 sereno Sereno 24 19 73 1017 10 N 1.8
Ieri h: 21:50 sereno Sereno 26 19 65 1016 10 N 1.8
Ieri h: 21:20 sereno Sereno 26 20 69 1016 10 N 3.7
Ieri h: 20:50 sereno Sereno 27 19 61 1016 10 N 3.7
Ieri h: 20:20 sereno Sereno 27 19 61 1016 10 N 1.8
Ieri h: 19:50 sereno Sereno 29 19 54 1016 10 N 5.5
Ieri h: 19:20 poco_nuvoloso Poco Nuvoloso 29 19 54 1015 10 SE 7.4
Ieri h: 18:50 sereno Sereno 30 20 55 1016 10 SE 7.4
Ieri h: 18:20 sereno Sereno 30 20 55 1016 10 SE 11.1
Ieri h: 17:50 sereno Sereno 31 20 52 1016 10 E/NE 13
Ieri h: 17:20 sereno Sereno 31 19 48 1016 10 E 9.3
Ieri h: 16:50 sereno Sereno 31 21 55 1015 10 E/NE 14.8
Ieri h: 16:20 sereno Sereno 30 22 62 1016 10 E 16.7
Ieri h: 15:50 sereno Sereno 30 22 62 1015 10 E 20.3
Ieri h: 15:20 sereno Sereno 30 23 66 1016 10 E/NE 20.3
Ieri h: 14:50 sereno Sereno 30 23 66 1016 10 E/NE 20.3
Ieri h: 14:20 sereno Sereno 30 23 66 1016 10 E/NE 18.5
Ieri h: 13:50 sereno Sereno 30 22 62 1016 10 E/NE 18.5
Ieri h: 13:20 sereno Sereno 31 20 52 1016 10 E/NE 14.8
Ieri h: 12:50 sereno Sereno 31 20 52 1016 10 NE 14.8
Ieri h: 12:20 sereno Sereno 30 21 58 1017 10 NE 13
Ieri h: 11:50 sereno Sereno 30 20 55 1017 10 NE 13
Ieri h: 11:20 sereno Sereno 30 20 55 1017 10 NE 11.1
Ieri h: 10:50 sereno Sereno 30 19 51 1017 10 E 7.4
Ieri h: 10:20 sereno Sereno 30 19 51 1017 10 N 3.7
Ieri h: 09:50 sereno Sereno 30 18 48 1017 10 N 3.7
Ieri h: 09:20 sereno Sereno 29 17 48 1016 10 N 5.5
Ieri h: 08:50 sereno Sereno 28 16 48 1016 10 N 5.5
Ieri h: 08:20 sereno Sereno 26 16 54 1016 10 N 3.7
Ieri h: 07:50 sereno Sereno 25 16 57 1016 10 N 5.5